Lid_Strength_Index
2 1 -1 -1 -1 -1 -1 -1 -1 -1 -1 -1 -1 -1 -1 -1 -1 -1 -1 -1 -1 -1 -1 -1 -1 -2 -2 -1 -1 -2 -1 -1 -2 -2 -2 -1 -1 -1 -1 -1 -1 -0 -1
2 1 -1 -1 -1 -1 -1 -1 -1 -1 -1 -1 -1 -1 -1 -1 -1 -1 -1 -1 -1 -1 -1 -2 -2 -1 -1 -2 -2 -2 -2 -2 -2 -1 -1 -0 1 -2 -1 -1 -1 -1 -1
1 0 0 -1 -2 -1 -2 -1 -1 -1 -1 -1 -1 -1 -1 -1 -1 -1 -1 -1 -1 -1 -2 -2 -2 -1 -1 -1 -1 -1 -2 -2 -1 -0 1 2 2 -1 -1 -1 -2 -1 -1
0 1 1 -1 -1 -1 -2 -1 -1 -1 -1 -1 -1 -1 -1 -1 -1 -1 -1 -1 -1 -1 -1 -2 -1 -2 -1 -1 -2 -1 -1 -1 0 0 3 2 3 -1 -1 -1 -1 -2 -1
1 1 1 -1 -1 -2 -2 -1 -1 -2 -1 -2 -2 -1 -1 -1 -1 -1 -1 -1 -2 -2 -2 -1 -0 0 0 0 0 -0 -0 -0 0 1 2 3 3 -1 -1 -1 -1 -1 -2
3 2 0 -1 -1 -2 -2 -2 -2 -2 -1 -2 -1 -1 -2 -2 -2 -1 -1 -2 -1 -1 -0 0 1 1 1 1 1 1 1 2 3 5 4 5 3 -1 -1 -1 -1 -2 -2
3 3 1 -1 -1 -2 -2 -2 -2 -2 -2 -2 -1 -2 -2 -2 -1 -0 -0 -0 -0 0 1 1 1 1 1 1 2 2 3 4 9 8 6 6 3 -2 -2 -2 -2 -2 -2
3 3 1 0 -1 -1 -2 -2 -2 -1 -1 -1 -2 -2 -1 -1 -0 0 0 0 0 1 1 1 1 2 2 2 3 3 4 6 9 9 7 6 1 -1 -1 -1 -1 -2 -2
3 3 2 1 1 -1 -1 -1 -1 -2 -1 -2 -2 -1 -0 0 0 1 1 1 1 1 1 2 2 3 3 3 4 5 6 7 11 10 7 6 1 -1 -1 -1 0 -0 -0
5 4 3 3 2 2 1 -0 -1 -1 -2 -2 -1 -0 0 0 1 1 1 1 1 2 3 3 4 4 4 5 6 6 7 8 12 11 9 6 1 -0 -0 -0 -0 -0 -0
6 5 4 4 4 4 4 2 0 -0 -1 -0 1 1 3 7 6 6 4 2 2 3 4 4 5 6 7 7 7 8 10 13 13 12 10 5 3 2 1 1 1 0 0
7 6 6 5 5 5 4 4 4 4 4 5 6 7 9 9 9 8 5 3 3 4 5 6 7 8 11 14 14 12 14 14 14 13 11 6 4 3 2 2 1 1 1
6 6 6 6 6 6 6 6 7 7 8 8 9 10 11 11 10 10 10 11 12 10 12 12 14 14 14 14 15 15 15 15 15 14 11 7 6 4 4 3 2 1 1
8 7 7 7 7 7 7 7 8 8 9 10 10 11 12 12 12 12 13 14 15 15 15 15 15 15 15 15 15 15 15 15 15 15 14 9 7 5 4 3 2 2 1
8 7 7 7 7 7 8 8 9 9 9 11 11 12 12 12 13 14 15 15 15 15 15 16 16 16 16 15 15 16 16 15 15 15 15 10 7 6 4 3 2 2 2
8 8 7 7 7 7 7 8 8 9 10 11 12 12 12 12 13 14 14 15 16 16 16 16 16 16 16 16 16 16 16 16 16 16 15 14 8 6 5 3 3 2 2
9 8 8 8 7 8 8 8 9 9 10 11 12 12 13 13 14 14 14 15 16 16 16 16 16 17 17 16 17 16 16 16 16 16 15 15 13 8 5 4 4 4 2
9 10 9 8 8 8 8 9 9 10 10 11 12 12 12 13 14 15 15 15 16 16 16 17 17 17 18 18 18 18 17 16 16 16 15 15 14 13 8 6 7 6 6
9 10 11 9 9 9 9 10 10 11 11 11 12 12 12 13 14 15 15 15 16 16 17 17 18 18 18 18 18 18 18 17 17 16 17 16 14 14 13 10 10 10 8
9 9 10 11 10 10 9 11 12 12 11 12 12 13 13 13 15 15 16 15 16 17 17 17 18 18 18 18 17 18 18 17 17 18 17 16 15 15 15 16 15 15 11
10 10 11 11 11 11 11 12 12 12 12 13 12 13 14 14 15 15 16 16 17 17 17 18 18 18 19 19 19 19 19 18 18 18 18 17 17 16 16 16 16 16 16
10 10 11 11 11 11 10 11 11 11 12 12 12 13 14 14 15 15 16 16 17 18 18 18 18 19 18 19 19 20 20 19 18 18 18 18 18 17 17 16 17 17 16
12 12 11 11 11 11 11 11 15 15 16 15 15 14 14 14 15 15 16 16 17 17 18 18 18 18 19 20 20 19 21 20 20 19 19 18 18 18 18 17 17 17 16
12 12 11 11 11 12 11 12 12 12 13 13 13 13 14 14 15 16 16 16 17 17 18 18 18 19 19 20 19 18 19 20 20 21 19 19 19 18 18 18 18 17 17
12 12 12 12 12 12 12 12 13 12 12 13 13 14 14 15 15 16 16 17 17 17 18 18 19 19 19 19 19 19 20 20 20 21 21 20 19 19 18 18 18 18 17
13 13 13 13 13 13 13 12 13 13 13 15 15 15 15 15 16 16 16 16 17 17 18 18 18 19 19 19 19 19 19 20 20 21 21 21 21 20 19 19 19 18 18